Location: BGSU Observatory
(41.3799°N, 83.6397°W)
Time: 14:35:57
(UTC-04:00)

Amateur Radio Satellites - All Passes

Search period start: 24 July 2016 14:05
Search period end: 25 July 2016 14:05
Location: BGSU Observatory, 41.3799°N, 83.6397°W

Satellite Date Start Highest point End Downlink Frequencies (MHz)
Time Altitude Azimuth
AO-85 24 Jul 14:09:23 14:12:07 14° 107° (ESE) 14:14:48 145.980
VELOX 1 24 Jul 14:14:24 14:18:21 32° 291° (WNW) 14:22:18 145.980
CUBEBUG 1 24 Jul 14:24:38 14:28:01 22° 293° (WNW) 14:31:24 437.445
ITAMSAT 1 24 Jul 14:31:39 14:35:37 22° 63° (ENE) 14:39:33 435.822/435.867
SPROUT 24 Jul 14:33:24 14:37:27 39° 289° (WNW) 14:41:27 437.525
Oscar 19 24 Jul 14:42:27 14:47:21 47° 260° (W) 14:52:19 437.125/150
ITUPSAT 1 24 Jul 14:52:29 14:55:01 14° 91° (E) 14:57:32 437.325
AISAT 24 Jul 15:00:54 15:02:25 12° 299° (WNW) 15:03:56 437.250
Cosmos 2504 24 Jul 15:03:52 15:06:49 12° 305° (NW) 15:09:46 435.465 / 435.565
AO-7 24 Jul 15:08:06 15:15:29 37° 59° (ENE) 15:22:53 29.400- 29.500
DX 1 24 Jul 15:11:43 15:13:28 12° 299° (WNW) 15:15:13 434.975-435.025
AIST 1 24 Jul 15:12:24 15:16:28 45° 281° (WNW) 15:20:34
GONETS M04 24 Jul 15:20:15 15:26:46 24° 80° (E) 15:33:18
Gurwin Techsat 1B 24 Jul 15:37:26 15:42:14 34° 263° (W) 15:47:05 435.225
TISAT 1 24 Jul 15:40:44 15:44:28 30° 291° (WNW) 15:48:12 437.305
SWISSCUBE 24 Jul 15:45:44 15:50:26 57° 101° (E) 15:55:06 437.505
AO-85 24 Jul 15:46:37 15:52:01 83° 301° (WNW) 15:57:13 145.980
BEESAT 24 Jul 16:07:27 16:12:14 86° 104° (ESE) 16:17:00 436.000
RS-15 24 Jul 16:08:27 16:20:23 50° 44° (NE) 16:32:12 29.354- 29.394
ITAMSAT 1 24 Jul 16:09:41 16:14:43 48° 260° (W) 16:19:48 435.822/435.867
Cosmos 2499 24 Jul 16:12:03 16:20:03 40° 86° (E) 16:27:57 435.465 / 435.565
DANDE 24 Jul 16:17:44 16:19:59 25° 76° (ENE) 16:22:18 436.750
CUSAT 1 24 Jul 16:23:55 16:26:38 42° 262° (W) 16:29:52 437.405
ITUPSAT 1 24 Jul 16:28:32 16:33:14 60° 287° (WNW) 16:37:55 437.325
AO-7 24 Jul 16:59:47 17:07:55 54° 258° (WSW) 17:16:07 29.400- 29.500
KKS-1 24 Jul 17:04:05 17:08:19 39° 98° (E) 17:12:31 437.445
SO-50 24 Jul 17:05:06 17:07:57 16° 38° (NE) 17:10:45 436.795
GONETS M04 24 Jul 17:14:05 17:22:43 70° 280° (W) 17:31:26
MOZHAYETS 4 24 Jul 17:15:52 17:20:24 57° 100° (E) 17:24:53
SWISSCUBE 24 Jul 17:24:49 17:27:45 16° 298° (WNW) 17:30:41 437.505
HORYU 2 24 Jul 17:26:02 17:30:26 59° 73° (ENE) 17:34:53 437.375
CUTE-I 24 Jul 17:28:59 17:31:23 13° 58° (ENE) 17:33:47 437.470
AO-85 24 Jul 17:29:57 17:33:13 16° 321° (NW) 17:36:24 145.980
NOAA 18 24 Jul 17:37:58 17:41:28 17° 59° (ENE) 17:44:59 137.9125
BEESAT 24 Jul 17:47:48 17:49:18 11° 301° (WNW) 17:50:47 436.000
STARS 24 Jul 17:51:05 17:55:31 63° 102° (ESE) 17:59:55 437.465
NOAA 15 24 Jul 17:56:44 18:01:14 30° 66° (ENE) 18:05:44 137.62
GOMX 1 24 Jul 18:01:27 18:03:24 13° 62° (ENE) 18:05:22 467.674
Cosmos 2499 24 Jul 18:04:31 18:12:59 48° 285° (WNW) 18:21:22 435.465 / 435.565
BRITE-PL 24 Jul 18:19:30 18:23:30 46° 73° (ENE) 18:27:28 437.365/2234.400
RS-15 24 Jul 18:21:17 18:33:11 57° 248° (WSW) 18:44:54 29.354- 29.394
CUBESAT XI-V 24 Jul 18:27:02 18:31:21 39° 98° (E) 18:35:39 437.345
PHONESAT 2.4 24 Jul 18:38:52 18:40:56 17° 152° (SSE) 18:43:00 2401.200-2431.200
Cubesat XI-IV 24 Jul 18:40:46 18:46:00 55° 72° (ENE) 18:51:16 437.490
KKS-1 24 Jul 18:41:17 18:44:36 21° 295° (WNW) 18:47:55 437.445
SO-50 24 Jul 18:44:25 18:49:05 84° 236° (SW) 18:53:34 436.795
MOZHAYETS 4 24 Jul 18:54:28 18:57:05 15° 297° (WNW) 18:59:40
LilacSat-2 24 Jul 19:03:52 19:07:44 89° 95° (E) 19:11:39 437.200
CUTE-I 24 Jul 19:05:16 19:10:39 89° 262° (W) 19:16:04 437.470
HORYU 2 24 Jul 19:05:17 19:07:22 13° 269° (W) 19:09:28 437.375
NOAA 18 24 Jul 19:16:00 19:21:30 71° 257° (WSW) 19:27:05 137.9125
GONETS M04 24 Jul 19:17:12 19:21:22 14° 303° (WNW) 19:25:33
STARS 24 Jul 19:29:11 19:31:20 13° 298° (WNW) 19:33:29 437.465
CUTE 1.7 + AOD 2 24 Jul 19:29:47 19:31:32 12° 63° (ENE) 19:33:16 437.475
NOAA 15 24 Jul 19:36:07 19:40:54 35° 263° (W) 19:45:40 137.62
GOMX 1 24 Jul 19:36:57 19:41:00 54° 260° (W) 19:45:12 467.674
BEESAT 3 24 Jul 19:38:02 19:41:28 30° 115° (ESE) 19:44:57 437.485
BEESAT 2 24 Jul 19:39:13 19:41:45 16° 111° (ESE) 19:44:16 435.950
DOVE 4 24 Jul 19:44:35 19:48:47 77° 76° (ENE) 19:53:14 437.250
HO-68 24 Jul 19:46:04 19:52:33 38° 63° (ENE) 19:59:03 435.675
BRITE-PL 24 Jul 20:00:13 20:02:18 13° 269° (W) 20:04:22 437.365/2234.400
CUBESAT XI-V 24 Jul 20:05:00 20:08:28 21° 294° (WNW) 20:11:56 437.345
CUBEBUG 2 24 Jul 20:10:07 20:12:26 14° 62° (ENE) 20:14:47 437.445
SEEDS 24 Jul 20:12:28 20:15:55 25° 68° (ENE) 20:19:22 437.485
PHONESAT 2.4 24 Jul 20:14:04 20:17:05 54° 166° (SSE) 20:20:06 2401.200-2431.200
CINEMA 3 24 Jul 20:17:31 20:21:48 49° 72° (ENE) 20:26:19 145.822/145.860
STRAND 1 24 Jul 20:21:58 20:26:41 36° 97° (E) 20:31:22 437.568
Cubesat XI-IV 24 Jul 20:22:38 20:26:24 19° 268° (W) 20:30:11 437.490
COMPASS 1 24 Jul 20:29:42 20:33:12 26° 69° (ENE) 20:36:42 437.405
RS-15 24 Jul 20:41:12 20:42:44 10° 269° (W) 20:44:16 29.354- 29.394
PCSat 24 Jul 20:42:54 20:48:12 60° 115° (ESE) 20:53:34 145.827
CANX-2 24 Jul 20:48:30 20:52:48 81° 259° (W) 20:57:06 2200.000
Oscar 11 24 Jul 20:48:47 20:51:16 15° 64° (ENE) 20:53:45 145.826/435.025
CUTE-I 24 Jul 20:50:11 20:51:23 11° 272° (W) 20:52:36 437.470
Cosmos 2491 24 Jul 20:52:53 20:55:24 11° 73° (ENE) 20:57:54 435.465 / 435.565
AAUSAT CUBESAT 2 24 Jul 21:00:24 21:04:23 45° 73° (ENE) 21:08:21 437.432
CUTE 1.7 + AOD 2 24 Jul 21:02:34 21:06:49 64° 259° (W) 21:11:05 437.475
PRISM 24 Jul 21:06:14 21:07:30 11° 91° (E) 21:08:47 437.425
O/OREOS (USA 219) 24 Jul 21:06:56 21:09:54 18° 100° (E) 21:12:53 437.305
M-CUBED/EXP-1 PRIME 24 Jul 21:14:56 21:17:07 15° 57° (ENE) 21:19:23 437.505
BEESAT 2 24 Jul 21:15:27 21:19:14 43° 307° (NW) 21:23:03 435.950
BEESAT 3 24 Jul 21:15:52 21:19:09 25° 312° (NW) 21:22:28 437.485
YUBILEINY 24 Jul 21:20:37 21:28:58 43° 73° (ENE) 21:37:13 435.215
UWE-3 24 Jul 21:27:59 21:32:26 58° 74° (ENE) 21:37:00 435.000/436.395/437.385
HO-68 24 Jul 21:33:24 21:40:08 43° 261° (W) 21:46:57 435.675
ZACube-1 24 Jul 21:35:19 21:39:36 45° 72° (ENE) 21:43:59 437.345
FUNcube-1 24 Jul 21:36:03 21:40:19 43° 72° (ENE) 21:44:39 145.935
HUMSAT D 24 Jul 21:42:06 21:43:49 12° 62° (ENE) 21:45:32 437.325/437.525
AUBIESAT-1 24 Jul 21:42:29 21:45:33 24° 62° (ENE) 21:48:49 437.475
CUBEBUG 2 24 Jul 21:43:57 21:48:26 66° 259° (W) 21:53:07 437.445
SEEDS 24 Jul 21:47:51 21:51:30 28° 264° (W) 21:55:10 437.485
DELFI C3 24 Jul 21:47:58 21:51:17 26° 69° (ENE) 21:54:37 145.870
PHONESAT 2.4 24 Jul 21:50:26 21:53:31 75° 182° (S) 21:56:35 2401.200-2431.200
CINEMA 3 24 Jul 21:56:34 21:59:17 16° 270° (W) 22:02:04 145.822/145.860
STRAND 1 24 Jul 22:01:26 22:05:42 27° 294° (WNW) 22:09:56 437.568
COMPASS 1 24 Jul 22:05:12 22:08:42 25° 265° (W) 22:12:11 437.405
Oscar 11 24 Jul 22:22:42 22:26:57 52° 260° (W) 22:31:14 145.826/435.025
PCSat 24 Jul 22:27:46 22:32:01 23° 314° (NW) 22:36:17 145.827
AAUSAT CUBESAT 2 24 Jul 22:37:46 22:40:05 14° 269° (W) 22:42:24 437.432
PRISM 24 Jul 22:39:08 22:43:10 57° 287° (WNW) 22:47:11 437.425
AO-85 24 Jul 22:40:09 22:42:18 13° 36° (NE) 22:44:22 145.980
TIGRISAT 24 Jul 22:41:10 22:42:41 11° 89° (E) 22:44:11 435.000
Cosmos 2491 24 Jul 22:41:50 22:50:26 68° 93° (E) 22:59:04 435.465 / 435.565
O/OREOS (USA 219) 24 Jul 22:44:41 22:48:56 43° 297° (WNW) 22:53:13 437.305
M-CUBED/EXP-1 PRIME 24 Jul 22:47:42 22:51:12 44° 257° (WSW) 22:55:01 437.505
AIST 2 24 Jul 22:51:49 22:55:55 87° 302° (WNW) 23:00:04 435.215
UNISAT 6 24 Jul 22:55:10 22:58:20 18° 92° (E) 23:01:26 437.425
Cosmos 2504 24 Jul 22:55:58 23:04:06 56° 77° (ENE) 23:11:34 435.465 / 435.565
UWE-3 24 Jul 23:06:54 23:09:16 14° 270° (W) 23:11:41 435.000/436.395/437.385
ESTCUBE 1 24 Jul 23:07:39 23:10:48 19° 65° (ENE) 23:13:57 437.505/2401.250
ZACube-1 24 Jul 23:13:05 23:16:07 18° 268° (W) 23:19:10 437.345
FUNcube-1 24 Jul 23:13:37 23:16:45 18° 268° (W) 23:19:54 145.935
HUMSAT D 24 Jul 23:14:36 23:18:52 67° 259° (W) 23:23:11 437.325/437.525
ISS 24 Jul 23:14:38 23:17:52 66° 141° (SE) 23:21:06 145.825
AUBIESAT-1 24 Jul 23:16:49 23:19:56 25° 260° (W) 23:23:17 437.475
YUBILEINY 24 Jul 23:17:36 23:25:42 42° 273° (W) 23:33:46 435.215
DELFI C3 24 Jul 23:22:51 23:26:05 23° 265° (W) 23:29:19 145.870
PHONESAT 2.4 24 Jul 23:27:01 23:29:52 34° 200° (SSW) 23:32:41 2401.200-2431.200
ANTELSAT 24 Jul 23:32:47 23:37:15 43° 98° (E) 23:41:36 437.575/2403.000
VELOX 1 24 Jul 23:35:58 23:39:17 22° 66° (ENE) 23:42:38 145.980
CUBEBUG 1 24 Jul 23:44:05 23:47:47 29° 69° (ENE) 23:51:30 437.445
SPROUT 24 Jul 23:52:44 23:55:09 15° 64° (ENE) 23:57:34 437.525
QB50P2 24 Jul 23:54:16 23:55:39 11° 90° (E) 23:57:00 145.880/145.840
50 SAT 24 Jul 23:55:42 23:58:59 31° 71° (ENE) 00:02:16 437.505
POLYITAN 1 24 Jul 23:56:47 23:58:18 12° 90° (E) 23:59:48 437.675
TIGRISAT 25 Jul 00:15:13 00:19:52 71° 285° (WNW) 00:24:24 435.000
AO-85 25 Jul 00:19:08 00:23:33 85° 54° (NE) 00:27:37 145.980
AISAT 25 Jul 00:19:16 00:23:36 66° 74° (ENE) 00:27:58 437.250
DX 1 25 Jul 00:28:48 00:33:02 58° 73° (ENE) 00:37:18 434.975-435.025
UNISAT 6 25 Jul 00:30:48 00:35:16 45° 288° (WNW) 00:39:37 437.425
AIST 2 25 Jul 00:33:19 00:35:03 12° 321° (NW) 00:36:46 435.215
NANOSAT C BR1 25 Jul 00:40:35 00:44:29 34° 97° (E) 00:48:22 145.865
Cosmos 2491 25 Jul 00:40:58 00:48:00 27° 293° (WNW) 00:55:04 435.465 / 435.565
ESTCUBE 1 25 Jul 00:43:01 00:47:18 42° 262° (W) 00:51:35 437.505/2401.250
DUCHIFAT 1 25 Jul 00:46:11 00:50:09 36° 98° (E) 00:54:05 145.980
UKube-1 25 Jul 00:47:38 00:51:55 75° 74° (ENE) 00:56:14 .
Cosmos 2504 25 Jul 00:50:11 00:56:53 29° 278° (W) 01:03:14 435.465 / 435.565
ISS 25 Jul 00:51:53 00:54:33 23° 340° (NNW) 00:57:12 145.825
JAS-2 25 Jul 00:54:49 00:58:13 17° 93° (E) 01:01:43 435.910
TISAT 1 25 Jul 00:57:40 01:00:31 18° 65° (ENE) 01:03:23 437.305
QB50P1 25 Jul 01:01:08 01:05:24 62° 102° (ESE) 01:09:38 145.935-145.965
POPSAT HIP 1 25 Jul 01:07:18 01:11:36 72° 102° (ESE) 01:15:52 437.405
ANTELSAT 25 Jul 01:10:16 01:13:37 20° 295° (WNW) 01:16:55 437.575/2403.000
VELOX 1 25 Jul 01:11:32 01:15:32 35° 262° (W) 01:19:35 145.980
BUGSAT 1 25 Jul 01:12:12 01:16:01 31° 97° (E) 01:19:49 437.445
AIST 1 25 Jul 01:19:01 01:23:08 40° 78° (ENE) 01:27:14
CUBEBUG 1 25 Jul 01:20:30 01:24:02 25° 265° (W) 01:27:36 437.445
SPROUT 25 Jul 01:26:30 01:30:39 51° 261° (W) 01:34:51 437.525
QB50P2 25 Jul 01:27:34 01:31:50 62° 286° (WNW) 01:36:03 145.880/145.840
POLYITAN 1 25 Jul 01:30:14 01:34:29 61° 286° (WNW) 01:38:42 437.675
50 SAT 25 Jul 01:30:21 01:32:41 16° 267° (W) 01:35:03 437.505
GONETS M04 25 Jul 01:31:08 01:33:51 12° 55° (NE) 01:36:35
BEESAT 25 Jul 01:39:36 01:41:20 12° 59° (ENE) 01:43:03 436.000
ITUPSAT 1 25 Jul 01:59:10 02:02:25 18° 63° (ENE) 02:05:40 437.325
AISAT 25 Jul 01:59:12 02:00:30 11° 270° (W) 02:01:48 437.250
Cosmos 2499 25 Jul 02:06:24 02:09:06 12° 56° (NE) 02:11:43 435.465 / 435.565
DX 1 25 Jul 02:07:48 02:09:35 12° 269° (W) 02:11:23 434.975-435.025
Gurwin Techsat 1B 25 Jul 02:16:03 02:17:35 11° 88° (E) 02:19:07 435.225
NANOSAT C BR1 25 Jul 02:16:45 02:20:00 21° 293° (WNW) 02:23:14 145.865
DUCHIFAT 1 25 Jul 02:22:29 02:25:35 20° 294° (WNW) 02:28:41 145.980
ISS 25 Jul 02:30:08 02:31:52 14° 360° (N) 02:33:37 145.825
TISAT 1 25 Jul 02:31:56 02:35:52 39° 262° (W) 02:39:50 437.305
JAS-2 25 Jul 02:38:31 02:43:39 58° 287° (WNW) 02:49:09 435.910
QB50P1 25 Jul 02:38:43 02:40:39 13° 297° (WNW) 02:42:34 145.935-145.965
POPSAT HIP 1 25 Jul 02:45:26 02:46:46 11° 298° (WNW) 02:48:06 437.405
BUGSAT 1 25 Jul 02:47:52 02:51:13 23° 293° (WNW) 02:54:33 437.445
SWISSCUBE 25 Jul 02:51:58 02:56:43 66° 74° (ENE) 03:01:30 437.505
Oscar 19 25 Jul 02:53:33 02:58:40 60° 101° (E) 03:03:47 437.125/150
AIST 1 25 Jul 02:57:40 03:00:21 16° 274° (W) 03:03:03
BEESAT 25 Jul 03:13:37 03:18:25 83° 259° (W) 03:23:14 436.000
GONETS M04 25 Jul 03:24:07 03:32:50 60° 78° (ENE) 03:41:31
ITUPSAT 1 25 Jul 03:35:10 03:39:50 52° 260° (W) 03:44:33 437.325
CUSAT 1 25 Jul 03:48:07 03:49:28 11° 93° (E) 03:50:43 437.405
PCSat 25 Jul 03:50:29 03:51:12 10° 34° (NNE) 03:51:55 145.827
Gurwin Techsat 1B 25 Jul 03:52:50 03:58:12 87° 286° (WNW) 04:03:31 435.225
BEESAT 3 25 Jul 03:55:09 03:58:13 21° 46° (NE) 04:01:17 437.485
Cosmos 2499 25 Jul 03:56:10 04:04:07 67° 79° (E) 04:11:25 435.465 / 435.565
BEESAT 2 25 Jul 03:56:41 03:58:49 14° 41° (NE) 04:00:55 435.950
KKS-1 25 Jul 04:02:07 04:06:10 36° 70° (ENE) 04:10:15 437.445
ISS 25 Jul 04:06:34 04:09:12 22° 20° (NNE) 04:11:50 145.825
MOZHAYETS 4 25 Jul 04:17:27 04:21:58 55° 73° (ENE) 04:26:30
ITAMSAT 1 25 Jul 04:22:13 04:27:22 59° 101° (ESE) 04:32:28 435.822/435.867
SWISSCUBE 25 Jul 04:32:45 04:34:57 13° 270° (W) 04:37:09 437.505
Oscar 19 25 Jul 04:34:06 04:37:30 18° 298° (WNW) 04:40:55 437.125/150
STARS 25 Jul 04:47:31 04:51:47 55° 73° (ENE) 04:56:07 437.465
AO-7 25 Jul 05:01:03 05:09:12 53° 102° (ESE) 05:17:15 29.400- 29.500
HORYU 2 25 Jul 05:19:27 05:20:41 11° 90° (E) 05:21:54 437.375
GONETS M04 25 Jul 05:21:49 05:29:03 30° 277° (W) 05:36:17
DANDE 25 Jul 05:24:14 05:30:14 60° 98° (E) 05:34:44 436.750
CUSAT 1 25 Jul 05:27:05 05:31:22 43° 280° (W) 05:34:43 437.405
CUBESAT XI-V 25 Jul 05:30:16 05:34:32 38° 71° (ENE) 05:38:49 437.345
PCSat 25 Jul 05:30:41 05:35:58 49° 55° (NE) 05:41:12 145.827
BEESAT 3 25 Jul 05:32:20 05:36:02 38° 244° (WSW) 05:39:42 437.485
BEESAT 2 25 Jul 05:33:07 05:37:08 74° 239° (WSW) 05:41:06 435.950
Gurwin Techsat 1B 25 Jul 05:35:16 05:37:19 12° 302° (WNW) 05:39:22 435.225
KKS-1 25 Jul 05:39:30 05:42:50 21° 266° (W) 05:46:12 437.445
ISS 25 Jul 05:42:39 05:45:54 69° 217° (SW) 05:49:08 145.825
Cosmos 2499 25 Jul 05:50:38 05:56:21 23° 280° (W) 06:01:48 435.465 / 435.565
MOZHAYETS 4 25 Jul 05:56:49 05:59:27 15° 269° (W) 06:02:06
ITAMSAT 1 25 Jul 06:02:52 06:06:22 18° 298° (WNW) 06:09:50 435.822/435.867
BRITE-PL 25 Jul 06:23:48 06:26:54 17° 93° (E) 06:30:07 437.365/2234.400
STARS 25 Jul 06:26:20 06:28:29 13° 269° (W) 06:30:38 437.465
RS-15 25 Jul 06:34:53 06:43:29 26° 100° (E) 06:52:22 29.354- 29.394
HORYU 2 25 Jul 06:53:13 06:57:42 69° 285° (WNW) 07:02:07 437.375
AO-7 25 Jul 06:54:15 07:01:40 37° 301° (WNW) 07:09:03 29.400- 29.500
Cubesat XI-IV 25 Jul 06:58:43 07:02:46 22° 93° (E) 07:06:48 437.490
CUBESAT XI-V 25 Jul 07:08:33 07:12:02 21° 267° (W) 07:15:32 437.345
DANDE 25 Jul 07:09:48 07:12:58 15° 287° (WNW) 07:15:44 436.750
AIST 2 25 Jul 07:13:03 07:17:12 61° 55° (NE) 07:21:18 435.215
PCSat 25 Jul 07:14:46 07:19:01 24° 253° (WSW) 07:23:15 145.827
O/OREOS (USA 219) 25 Jul 07:15:13 07:19:24 35° 61° (ENE) 07:23:35 437.305
CUTE-I 25 Jul 07:22:34 07:27:28 36° 97° (E) 07:32:20 437.470
GOMX 1 25 Jul 07:37:20 07:42:06 43° 98° (E) 07:47:07 467.674
STRAND 1 25 Jul 07:37:41 07:42:40 53° 71° (ENE) 07:47:41 437.568
NOAA 18 25 Jul 07:38:04 07:43:27 49° 100° (E) 07:48:46 137.9125
DOVE 4 25 Jul 07:43:05 07:47:13 24° 94° (E) 07:51:25 437.250
NOAA 15 25 Jul 07:50:26 07:55:43 86° 105° (ESE) 08:01:00 137.62
BRITE-PL 25 Jul 08:00:59 08:05:35 54° 286° (WNW) 08:10:34 437.365/2234.400
LilacSat-2 25 Jul 08:11:26 08:15:16 59° 285° (WNW) 08:19:02 437.200
CINEMA 3 25 Jul 08:13:27 08:16:03 14° 89° (E) 08:18:38 145.822/145.860
CANX-2 25 Jul 08:34:33 08:37:21 17° 92° (E) 08:40:08 2200.000
Cubesat XI-IV 25 Jul 08:37:56 08:43:05 48° 290° (WNW) 08:48:11 437.490
RS-15 25 Jul 08:42:51 08:54:21 86° 303° (WNW) 09:06:33 29.354- 29.394
CUTE 1.7 + AOD 2 25 Jul 08:48:07 08:51:20 21° 94° (E) 08:54:32 437.475
Cosmos 2491 25 Jul 08:52:23 09:00:08 34° 70° (ENE) 09:07:51 435.465 / 435.565
AIST 2 25 Jul 08:53:17 08:55:10 13° 251° (WSW) 08:57:03 435.215
O/OREOS (USA 219) 25 Jul 08:55:04 08:58:35 22° 258° (WSW) 09:02:06 437.305
SO-50 25 Jul 08:58:32 09:02:51 32° 114° (ESE) 09:07:09 436.795
HO-68 25 Jul 09:00:38 09:07:17 38° 98° (E) 09:13:51 435.675
CUTE-I 25 Jul 09:02:48 09:07:23 30° 294° (WNW) 09:11:56 437.470
GOMX 1 25 Jul 09:16:00 09:19:56 24° 293° (WNW) 09:24:03 467.674
STRAND 1 25 Jul 09:18:38 09:22:09 18° 268° (W) 09:25:42 437.568
NOAA 18 25 Jul 09:19:24 09:23:46 24° 297° (WNW) 09:28:06 137.9125
UWE-3 25 Jul 09:19:44 09:21:38 12° 89° (E) 09:23:29 435.000/436.395/437.385
DOVE 4 25 Jul 09:20:13 09:24:59 42° 289° (WNW) 09:29:55 437.250
PRISM 25 Jul 09:28:11 09:32:15 82° 254° (WSW) 09:36:21 437.425
SEEDS 25 Jul 09:31:00 09:35:01 45° 99° (E) 09:39:00 437.485
NOAA 15 25 Jul 09:32:22 09:34:45 13° 302° (WNW) 09:37:09 137.62
CUBEBUG 2 25 Jul 09:35:11 09:39:15 27° 95° (E) 09:43:11 437.445
TIGRISAT 25 Jul 09:40:20 09:41:54 12° 60° (ENE) 09:43:28 435.000
COMPASS 1 25 Jul 09:47:08 09:51:08 47° 99° (E) 09:55:07 437.405
CINEMA 3 25 Jul 09:48:37 09:53:37 68° 285° (WNW) 09:58:34 145.822/145.860
UNISAT 6 25 Jul 09:54:18 09:57:17 17° 64° (ENE) 10:00:18 437.425
CANX-2 25 Jul 10:09:26 10:13:22 39° 288° (WNW) 10:17:17 2200.000
Oscar 11 25 Jul 10:10:07 10:13:49 27° 95° (E) 10:17:28 145.826/435.025
AAUSAT CUBESAT 2 25 Jul 10:17:41 10:21:49 87° 101° (E) 10:25:55 437.432
YUBILEINY 25 Jul 10:21:24 10:29:41 49° 89° (E) 10:38:03 435.215
CUTE 1.7 + AOD 2 25 Jul 10:23:28 10:27:13 32° 290° (WNW) 10:30:57 437.475
M-CUBED/EXP-1 PRIME 25 Jul 10:27:42 10:30:02 14° 95° (E) 10:32:24 437.505
ANTELSAT 25 Jul 10:31:18 10:35:34 39° 70° (ENE) 10:39:56 437.575/2403.000
SO-50 25 Jul 10:38:49 10:43:17 34° 311° (NW) 10:47:43 436.795
HO-68 25 Jul 10:48:20 10:54:59 42° 296° (WNW) 11:01:38 435.675
Cosmos 2491 25 Jul 10:48:53 10:57:18 54° 270° (W) 11:05:44 435.465 / 435.565
UWE-3 25 Jul 10:53:55 10:58:33 65° 285° (WNW) 11:03:01 435.000/436.395/437.385
AUBIESAT-1 25 Jul 10:54:48 10:58:21 21° 98° (E) 11:01:53 437.475
RS-15 25 Jul 10:58:34 11:08:49 33° 330° (NNW) 11:19:32 29.354- 29.394
HUMSAT D 25 Jul 10:58:54 11:01:55 19° 93° (E) 11:04:55 437.325/437.525
DELFI C3 25 Jul 10:59:32 11:03:16 40° 98° (E) 11:06:58 145.870
ZACube-1 25 Jul 10:59:37 11:04:11 86° 283° (WNW) 11:08:36 437.345
FUNcube-1 25 Jul 10:59:58 11:04:30 90° 115° (ESE) 11:08:54 145.935
SEEDS 25 Jul 11:07:50 11:10:21 16° 295° (WNW) 11:12:51 437.485
CUBEBUG 2 25 Jul 11:11:39 11:15:49 31° 291° (WNW) 11:19:53 437.445
TIGRISAT 25 Jul 11:13:15 11:17:52 82° 258° (WSW) 11:22:35 435.000
COMPASS 1 25 Jul 11:23:59 11:26:17 15° 295° (WNW) 11:28:36 437.405
UNISAT 6 25 Jul 11:29:03 11:33:32 52° 261° (W) 11:38:08 437.425
Cosmos 2504 25 Jul 11:32:39 11:41:00 49° 88° (E) 11:49:21 435.465 / 435.565
NANOSAT C BR1 25 Jul 11:32:56 11:36:25 26° 68° (ENE) 11:39:57 145.865
DUCHIFAT 1 25 Jul 11:38:14 11:41:47 27° 69° (ENE) 11:45:23 145.980
Oscar 11 25 Jul 11:46:15 11:49:51 26° 292° (WNW) 11:53:27 145.826/435.025
QB50P1 25 Jul 11:53:23 11:57:25 45° 72° (ENE) 12:01:30 145.935-145.965
POPSAT HIP 1 25 Jul 11:59:32 12:03:39 52° 73° (ENE) 12:07:48 437.405
M-CUBED/EXP-1 PRIME 25 Jul 12:00:15 12:04:54 68° 291° (WNW) 12:09:35 437.505
BUGSAT 1 25 Jul 12:02:24 12:05:34 22° 67° (ENE) 12:08:46 437.445
ANTELSAT 25 Jul 12:08:53 12:12:24 21° 267° (W) 12:15:58 437.575/2403.000
AISAT 25 Jul 12:11:14 12:13:06 12° 91° (E) 12:14:59 437.250
YUBILEINY 25 Jul 12:18:42 12:26:40 37° 289° (WNW) 12:34:43 435.215
QB50P2 25 Jul 12:19:46 12:24:00 85° 256° (WSW) 12:28:19 145.880/145.840
POLYITAN 1 25 Jul 12:22:24 12:26:38 83° 255° (WSW) 12:30:57 437.675
AUBIESAT-1 25 Jul 12:28:32 12:32:54 42° 294° (WNW) 12:37:15 437.475
HUMSAT D 25 Jul 12:33:49 12:37:39 34° 290° (WNW) 12:41:25 437.325/437.525
ESTCUBE 1 25 Jul 12:35:14 12:39:25 38° 98° (E) 12:43:35 437.505/2401.250
Oscar 19 25 Jul 12:35:21 12:37:01 12° 58° (ENE) 12:38:41 437.125/150
DELFI C3 25 Jul 12:35:25 12:37:47 15° 294° (WNW) 12:40:08 145.870
UKube-1 25 Jul 12:36:38 12:38:23 12° 91° (E) 12:40:08 .
JAS-2 25 Jul 12:50:21 12:56:24 58° 72° (ENE) 13:01:50 435.910
50 SAT 25 Jul 12:57:29 13:00:52 37° 98° (E) 13:04:13 437.505
VELOX 1 25 Jul 13:01:04 13:05:16 41° 99° (E) 13:09:28 145.980
CUBEBUG 1 25 Jul 13:07:52 13:12:13 57° 101° (E) 13:16:32 437.445
NANOSAT C BR1 25 Jul 13:08:28 13:12:04 27° 264° (W) 13:15:42 145.865
SPROUT 25 Jul 13:12:38 13:16:15 26° 95° (E) 13:19:52 437.525
DUCHIFAT 1 25 Jul 13:13:56 13:17:26 25° 265° (W) 13:20:58 145.980
RS-15 25 Jul 13:17:33 13:26:40 23° 5° (N) 13:35:55 29.354- 29.394
Cosmos 2504 25 Jul 13:26:21 13:34:30 40° 288° (WNW) 13:42:41 435.465 / 435.565
QB50P1 25 Jul 13:30:55 13:33:27 15° 268° (W) 13:35:58 145.935-145.965
Gurwin Techsat 1B 25 Jul 13:36:03 13:39:50 20° 63° (ENE) 13:43:39 435.225
BUGSAT 1 25 Jul 13:37:12 13:40:46 30° 264° (W) 13:44:25 437.445
POPSAT HIP 1 25 Jul 13:37:40 13:39:44 13° 269° (W) 13:41:50 437.405
AISAT 25 Jul 13:45:33 13:49:57 61° 287° (WNW) 13:54:21 437.250
AIST 1 25 Jul 13:48:56 13:52:19 24° 89° (E) 13:55:44
DX 1 25 Jul 13:52:45 13:57:08 74° 285° (WNW) 14:01:29 434.975-435.025
